Location: Chevigny
(47.5037°N, 3.3038°E)
Time: 02:36:13
(UTC+00:00)

Daily predictions for brighter satellites

Satellite Brightness Start Highest point End
(mag) Time Altitude Azimuth Time Altitude Azimuth Time Altitude Azimuth
CENTAUR R/B 4.5 02:03:00 22° E 02:03:00 22° E 02:06:24 10° ENE
Cosmos 2344 3.9 02:37:40 60° E 02:37:40 60° E 02:44:33 10° NE
USA 238 DEB 4.4 02:41:03 48° ENE 02:41:03 48° ENE 02:46:02 10° NE
USA 238 4.4 02:41:08 48° ENE 02:41:08 48° ENE 02:46:08 10° NE
Cosmos 1980 Rocket 4.3 02:54:36 14° N 02:57:51 22° NE 03:02:10 10° E
USA 234 3.7 02:54:01 10° NE 02:59:22 55° NNE 02:59:22 55° NNE
ADEOS Rocket 3.8 02:57:04 10° SE 03:02:10 42° ENE 03:07:27 10° N
IDEFIX/ARIANE 42P 4.2 03:16:47 10° N 03:18:52 25° N 03:18:52 25° N
MSX 4.1 03:27:24 10° NNE 03:32:03 59° N 03:32:03 59° N
In-Cosmos 22 4.3 03:35:42 64° NNE 03:35:42 64° NNE 03:40:18 10° NNE
Cosmos 1833 Rocket 3.5 03:33:51 32° SSE 03:36:01 47° ESE 03:41:26 10° NE
CZ-4B R/B 3.9 03:33:54 10° ESE 03:36:36 21° ENE 03:37:08 21° NE
Cosmos 2279 Rocket 4.3 03:32:02 10° N 03:43:01 18° S 03:44:26 10° S
Cosmos 1626 4.2 03:39:55 24° ESE 03:40:44 27° E 03:43:54 10° NNE
NOSS 3-2 (C) 3.2 03:43:22 75° NW 03:43:26 75° NW 03:50:06 10° NE
CENTAUR R/B 2.4 03:50:12 65° W 03:50:54 71° NW 03:58:07 10° NE
Cosmos 2369 3.9 03:49:30 26° NNW 03:52:46 71° ENE 03:58:23 10° SE
Cosmos 1656 4.4 03:55:16 39° S 03:55:16 39° S 03:58:55 10° S
Cosmos 2082 Rocket 3.3 03:53:45 10° S 03:58:57 41° ESE 04:04:12 10° NE
Cosmos 1461 4.0 03:57:50 35° SSE 03:59:14 47° ESE 04:03:45 10° NE
SL-16 R/B 4.3 04:01:28 10° N 04:05:58 23° NE 04:10:25 10° E
PSLV R/B 3.6 04:01:41 10° NNE 04:05:31 69° N 04:05:31 69° N
CZ-2C R/B 2.2 04:02:40 10° NNE 04:07:40 80° WNW 04:08:51 52° SSW
USA 290 4.2 04:06:41 23° SE 04:07:48 28° ESE 04:10:39 10° NE
ISS -2.7 04:09:06 44° E 04:09:06 44° E 04:11:41 10° ENE
ARIANE 5 R/B 4.4 04:04:20 10° N 04:05:39 16° NNW 04:05:39 16° NNW
Lacrosse 4 Rocket 2.2 04:18:22 37° NNW 04:18:22 37° NNW 04:21:20 10° NNE
Cosmos 1697 Rocket 2.6 04:16:50 29° NW 04:19:42 66° WSW 04:25:18 10° SSE
Meteor 1-31 Rocket 4.0 04:18:28 10° NNE 04:22:15 43° E 04:26:01 10° S
COSMOS 2406 3.2 04:21:37 39° WSW 04:23:36 63° WNW 04:29:15 10° NNE
[s.n.46727] 4.0 04:25:26 36° ESE 04:25:26 36° ESE 04:27:40 10° ENE
[s.n.46723] 3.9 04:25:27 37° SE 04:25:27 37° SE 04:27:47 10° ENE
[s.n.46707] 4.0 04:25:36 36° ESE 04:25:36 36° ESE 04:27:50 10° ENE
[s.n.46708] 4.0 04:25:41 36° ESE 04:25:41 36° ESE 04:27:56 10° ENE
[s.n.46719] 3.9 04:25:47 36° ESE 04:25:47 36° ESE 04:28:01 10° ENE
[s.n.46724] 3.9 04:25:52 37° ESE 04:25:52 37° ESE 04:28:07 10° ENE
[s.n.46687] 3.9 04:25:57 37° ESE 04:25:57 37° ESE 04:28:13 10° ENE
[s.n.46696] 3.9 04:26:02 37° ESE 04:26:02 37° ESE 04:28:18 10° ENE
[s.n.46720] 3.9 04:26:08 37° ESE 04:26:08 37° ESE 04:28:24 10° ENE
[s.n.46676] 3.9 04:26:12 37° ESE 04:26:12 37° ESE 04:28:29 10° ENE
Lacrosse 5 rocket 0.8 04:25:46 80° W 04:25:54 83° NW 04:29:42 10° NE
[s.n.46721] 3.9 04:26:18 37° ESE 04:26:18 37° ESE 04:28:35 10° ENE
[s.n.46728] 3.9 04:26:23 37° ESE 04:26:23 37° ESE 04:28:40 10° ENE
[s.n.46690] 3.9 04:26:28 37° ESE 04:26:28 37° ESE 04:28:45 10° ENE
[s.n.46694] 3.9 04:26:32 37° ESE 04:26:32 37° ESE 04:28:49 10° ENE
[s.n.46702] 3.9 04:26:39 38° ESE 04:26:39 38° ESE 04:28:56 10° ENE
[s.n.46679] 3.9 04:26:42 38° SE 04:26:42 38° SE 04:29:00 10° ENE
[s.n.46704] 3.8 04:26:44 39° SE 04:26:44 39° SE 04:29:07 10° ENE
[s.n.46712] 3.9 04:26:50 38° SE 04:26:50 38° SE 04:29:08 10° ENE
[s.n.46711] 3.8 04:26:59 38° SE 04:26:59 38° SE 04:29:17 10° ENE
[s.n.46684] 3.8 04:27:01 38° SE 04:27:01 38° SE 04:29:19 10° ENE
[s.n.46706] 3.8 04:27:09 38° SE 04:27:09 38° SE 04:29:28 10° ENE
[s.n.46678] 3.8 04:27:08 39° SE 04:27:08 39° SE 04:29:33 10° ENE
[s.n.46677] 3.8 04:27:17 38° SE 04:27:17 38° SE 04:29:36 10° ENE
[s.n.46671] 3.8 04:27:22 38° SE 04:27:22 38° SE 04:29:42 10° ENE
[s.n.46675] 3.8 04:27:27 39° SE 04:27:27 39° SE 04:29:47 10° ENE
[s.n.46674] 3.8 04:27:33 39° SE 04:27:33 39° SE 04:29:53 10° ENE
[s.n.46698] 3.8 04:27:38 39° SE 04:27:38 39° SE 04:29:58 10° ENE
[s.n.46699] 3.8 04:27:39 40° SE 04:27:39 40° SE 04:30:05 10° ENE
Meteor 2-5 Rocket 3.8 04:21:46 10° S 04:27:28 85° E 04:33:21 10° NNE
[s.n.46715] 3.8 04:27:48 39° SE 04:27:48 39° SE 04:30:10 10° ENE
[s.n.46714] 3.8 04:27:53 39° SE 04:27:53 39° SE 04:30:15 10° ENE
[s.n.46726] 3.8 04:27:59 39° SE 04:27:59 39° SE 04:30:21 10° ENE
[s.n.46703] 3.8 04:28:04 39° SE 04:28:04 39° SE 04:30:26 10° ENE
[s.n.46713] 3.8 04:28:09 39° SE 04:28:09 39° SE 04:30:31 10° ENE
[s.n.46717] 3.7 04:28:14 40° SE 04:28:14 40° SE 04:30:36 10° ENE
[s.n.46691] 3.7 04:28:16 41° SE 04:28:16 41° SE 04:30:43 10° ENE
[s.n.46693] 3.7 04:28:25 40° SE 04:28:25 40° SE 04:30:48 10° ENE
[s.n.46672] 3.7 04:28:30 40° SE 04:28:30 40° SE 04:30:53 10° ENE
[s.n.46701] 3.7 04:28:35 40° SE 04:28:35 40° SE 04:30:59 10° ENE
[s.n.46685] 3.7 04:28:40 40° SE 04:28:40 40° SE 04:31:05 10° ENE
[s.n.46709] 3.7 04:28:46 40° SE 04:28:46 40° SE 04:31:10 10° ENE
[s.n.46683] 3.7 04:28:50 40° SE 04:28:50 40° SE 04:31:15 10° ENE
[s.n.46695] 3.7 04:28:55 41° SE 04:28:55 41° SE 04:31:20 10° ENE
[s.n.46688] 3.7 04:29:02 41° SE 04:29:02 41° SE 04:31:27 10° ENE
[s.n.46729] 3.7 04:29:06 41° SE 04:29:06 41° SE 04:31:31 10° ENE
[s.n.46697] 3.7 04:29:09 41° SE 04:29:09 41° SE 04:31:34 10° ENE
[s.n.46725] 3.7 04:29:14 41° SE 04:29:14 41° SE 04:31:39 10° ENE
[s.n.46682] 3.7 04:29:19 41° SE 04:29:19 41° SE 04:31:44 10° ENE
[s.n.46680] 3.7 04:29:25 41° SE 04:29:25 41° SE 04:31:51 10° ENE
[s.n.46718] 3.7 04:29:30 41° SE 04:29:30 41° SE 04:31:56 10° ENE
[s.n.46710] 3.6 04:29:35 41° SE 04:29:35 41° SE 04:32:02 10° ENE
[s.n.46673] 3.6 04:29:46 42° SE 04:29:46 42° SE 04:32:12 10° ENE
[s.n.46700] 3.6 04:29:51 42° SE 04:29:51 42° SE 04:32:18 10° ENE
FENGYUN 3A 3.8 04:24:15 10° NNE 04:29:43 75° ESE 04:35:08 10° S
[s.n.46705] 3.6 04:29:56 42° SE 04:29:56 42° SE 04:32:24 10° ENE
[s.n.46692] 3.6 04:30:02 42° SE 04:30:02 42° SE 04:32:30 10° ENE
[s.n.46686] 3.6 04:30:07 42° SE 04:30:07 42° SE 04:32:35 10° ENE
[s.n.46716] 3.6 04:30:12 42° SE 04:30:12 42° SE 04:32:41 10° ENE
[s.n.46722] 3.6 04:30:17 42° SE 04:30:17 42° SE 04:32:46 10° ENE
[s.n.46689] 3.6 04:30:23 42° SE 04:30:23 42° SE 04:32:52 10° ENE
[s.n.46681] 3.6 04:30:28 42° SE 04:30:28 42° SE 04:32:57 10° ENE
USA 238 DEB 4.3 04:28:30 31° WNW 04:30:36 38° NNW 04:37:06 10° NE
USA 238 4.3 04:28:35 31° WNW 04:30:42 39° NNW 04:37:12 10° NE
NOSS 3-2 (A) 4.3 04:31:50 28° WNW 04:33:38 33° NNW 04:39:47 10° NE
PAYLOAD A 4.3 04:29:19 10° N 04:34:08 44° WNW 04:35:51 33° WSW
SAR-Lupe-4 3.6 04:34:13 10° SSE 04:37:47 80° ENE 04:41:23 10° NNW
ATLAS 3B R/B 2.6 04:32:59 12° SW 04:39:03 86° SE 04:45:46 10° NE
Cosmos 1726 Rocket 3.5 04:35:00 10° N 04:39:29 85° W 04:43:56 10° S
ERS-2 2.4 04:36:08 10° S 04:39:17 45° WSW 04:39:17 45° WSW
Cosmos 967 Rocket 4.5 04:37:13 18° NW 04:41:51 60° WSW 04:47:58 10° SSE
Cosmos 1980 Rocket 2.1 04:36:54 10° NNW 04:42:31 79° WSW 04:48:06 10° SSE
USA 234 4.0 04:36:55 10° ENE 04:42:54 40° N 04:46:42 21° WNW
Abrixas rocket 2.2 04:43:59 48° S 04:43:59 48° S 04:46:37 10° SE
Cosmos 2228 3.0 04:40:18 10° NNW 04:44:36 56° W 04:48:52 10° S
ATLAS CENTAUR R/B 4.4 04:43:18 10° SE 04:45:10 13° ESE 04:47:00 10° E
Meteor 2-13 Rocket 4.3 04:39:39 10° SSW 04:45:48 77° W 04:51:58 10° N
Cosmos 1092 Rocket 3.9 04:40:36 10° S 04:46:47 85° W 04:53:03 10° N
Geosat 4.1 04:42:12 10° S 04:47:04 50° WSW 04:51:09 15° NW
ADEOS Rocket 3.4 04:43:07 10° SSW 04:47:54 31° W 04:52:50 10° NNW
ADEOS 3.5 04:45:33 10° N 04:50:46 72° WNW 04:55:58 10° SSW
Nadezhda 4 Rocket 4.1 04:45:10 10° SSW 04:51:06 51° WNW 04:57:06 10° N
Cosmos 2344 4.2 04:47:42 24° W 04:51:43 39° NNW 04:59:45 10° NE
Aureole 3 3.7 04:48:55 10° N 04:53:03 89° E 04:58:20 10° S
CZ-3 R/B 4.2 04:35:59 13° WSW 04:53:04 31° SSW 05:00:26 10° SE
Cosmos 1606 Rocket 3.8 04:50:59 10° NNW 04:55:17 47° W 04:59:33 10° SSW
SAR-Lupe-1 3.9 04:52:07 10° S 04:55:40 68° WSW 04:59:15 10° NNW
Cosmos 1400 Rocket 2.6 04:52:03 10° NNW 04:55:58 65° W 04:59:49 10° S
CZ-4B R/B 3.8 04:52:14 10° N 04:56:29 78° WNW 05:00:29 10° SSW
TELKOM 3 3.8 05:01:47 28° WSW 05:03:24 86° SSE 05:07:22 10° ENE
COSMO-SKYMED 1 2.5 05:01:36 10° S 05:05:57 75° WSW 05:10:18 10° NNW
CZ-4B R/B 2.4 05:05:44 10° SSW 05:08:43 27° W 05:10:16 19° NW
Cosmos 1300 3.3 05:05:57 10° NNW 05:09:27 34° W 05:12:55 10° SSW
ARGOS Delta rocket 4.1 05:04:28 10° N 05:09:52 73° WNW 05:15:20 10° SSW
Cosmos 1627 Rocket 4.5 05:05:02 10° SSW 05:11:25 71° W 05:17:49 10° N
ALOS 2.5 05:07:59 10° N 05:12:26 45° WNW 05:16:52 10° SW
Cosmos 2278 4.0 05:07:30 10° NW 05:12:52 45° WSW 05:18:12 10° S
Meteor 2-10 Rocket 3.5 05:09:11 10° N 05:14:14 82° E 05:19:19 10° SSE
Cosmos 2322 Rocket 3.1 05:08:57 10° NNW 05:14:29 50° NE 05:19:58 10° SE
Cosmos 1689 Rocket 2.1 05:12:29 10° S 05:15:20 50° W 05:18:12 10° NNW
Cosmos 1626 3.2 05:14:34 18° WSW 05:15:58 23° WNW 05:18:58 10° NNW
SL-14 R/B 4.1 05:12:35 10° SW 05:16:07 30° WNW 05:19:44 10° N
Meteor 2-8 Rocket 4.4 05:13:48 10° NNW 05:19:57 72° W 05:26:04 10° S
Cosmos 1833 Rocket 3.4 05:15:37 13° WSW 05:20:08 33° NW 05:25:14 10° NNE
MOS 1 Rocket 4.2 05:17:08 10° SE 05:21:13 47° ENE 05:25:22 10° N
deb Chang Zheng 4 4.0 05:18:30 10° N 05:22:27 38° WNW 05:26:24 10° SW
Cosmos 2084 3.4 05:20:10 10° SW 05:24:30 75° NW 05:28:55 10° NE
METEOR-M 4.3 05:20:18 10° N 05:25:26 48° WNW 05:30:31 10° SW
H-2A R/B 3.7 05:23:15 10° NNE 05:27:32 48° E 05:31:37 10° S
Cosmos 1315 Rocket 2.8 05:23:39 10° NNW 05:27:47 84° W 05:31:55 10° S
SJ-12 4.0 05:24:15 10° N 05:28:16 52° WNW 05:32:14 10° SSW
SL-19 R/B 4.3 05:27:11 10° N 05:29:43 30° WNW 05:32:17 10° SW
Cosmos 2058 Rocket 3.5 05:25:32 10° NNW 05:29:47 41° W 05:33:58 10° SSW
Elektron 1 4.0 05:27:39 10° WSW 05:30:31 46° NW 05:33:28 10° NE
Okean 1-7 Rocket 3.8 05:26:22 10° SSW 05:30:48 52° WNW 05:35:15 10° N
Cosmos 1484 Rocket 3.9 05:28:36 10° NNW 05:31:42 23° WNW 05:34:45 10° WSW
SL-27 R/B 4.1 05:28:28 10° S 05:31:51 39° ESE 05:35:16 10° NE
ASTRO F (AKARI) 4.4 05:28:35 10° N 05:32:05 66° WNW 05:35:25 10° SSW
H-2A R/B 3.0 05:30:33 10° NNE 05:34:22 75° E 05:38:13 10° S
Cosmos 1553 Rocket 3.9 05:31:04 10° NNW 05:37:10 68° W 05:43:10 10° S
Cosmos 1461 4.0 05:34:24 10° WSW 05:38:32 31° NW 05:42:48 10° NNE
Meteor 1-24 Rocket 4.3 05:34:07 10° SW 05:39:16 35° WNW 05:44:39 10° N
Cosmos 1892 Rocket 4.3 05:35:37 10° SW 05:39:29 30° WNW 05:43:24 10° N
Meteor PRIRODA 3.9 05:37:21 10° N 05:40:53 46° WNW 05:44:23 10° SW
Meteor 2-15 Rocket 4.5 05:35:21 10° N 05:41:31 89° WSW 05:47:35 10° S
USA 290 3.7 05:39:52 10° WSW 05:42:15 19° NW 05:44:40 10° N
CENTAUR R/B 3.8 05:37:24 10° WNW 05:42:57 28° NNW 05:49:23 10° NE
Cosmos 2082 Rocket 2.7 05:37:57 10° WSW 05:43:06 37° NW 05:48:19 10° NNE
CREW DRAGON DEMO-1 DEB 3.1 05:40:30 11° WNW 05:43:16 54° SSW 05:46:13 10° SE
Cosmos 614 Rocket 4.0 05:39:47 10° SW 05:44:51 58° WNW 05:49:55 10° NNE
SJ-7 4.4 05:40:57 10° NNE 05:45:00 86° ESE 05:48:59 10° SSW
CZ-2C R/B 4.2 05:42:48 10° NNW 05:45:03 13° NW 05:47:15 10° W
ISS -3.2 05:42:04 10° W 05:45:15 45° N 05:48:31 10° ENE
Cosmos 2026 Rocket 4.4 05:42:17 10° SW 05:48:16 42° WNW 05:54:18 10° N
CZ-4B DEB 4.5 05:44:11 10° NNE 05:49:42 77° ESE 05:55:10 10° S
SL-16 R/B 2.2 05:45:01 10° NNW 05:50:43 77° WSW 05:56:22 10° SSE
Cosmos 2251 Rocket 4.4 05:48:03 10° WSW 05:52:44 30° NW 05:57:25 10° N
